Weather History for Qaarsut, Greenland

Change the Weather History Date:

Thursday, May 10, 2012

  Actual Average Record
Temperature  
Mean Temperature 36 °F -  
Max Temperature 40 °F - - ()
Min Temperature 31 °F - - ()
Degree Days  
Heating Degree Days 30    
Moisture  
Dew Point 29 °F    
Average Humidity 80    
Maximum Humidity 100    
Minimum Humidity 32    
Precipitation  
Precipitation 0.00 in - - ()
Sea Level Pressure  
Sea Level Pressure 29.79 in    
Wind  
Wind Speed 9 mph ()    
Max Wind Speed 17 mph    
Max Gust Speed -    
Visibility 6.2 miles    
Events      
T = Trace of Precipitation, MM = Missing Value Source: Averaged Metar Reports

Daily Weather History Graph

Daily Weather History Graph

Search for Another Location

Airport:

Trip Planner

Search our weather history database for the weather conditions in past years. The results will help you decide how hot, cold, wet, or windy it might be!

Date:

Astronomy

May. 10, 2012 Rise Set
Actual Time 2:31 AM WGST 12:34 AM WGST
Civil Twilight Sun does not rise Sun does not rise
Nautical Twilight Sun does not rise Sun does not rise
Astronomical Twilight Sun does not rise Sun does not rise
Moon 4:53 AM WGST (5/10) 6:20 AM WGST (5/10)
Length of Visible Light 24h 00m
Length of Day
22h 02m
Waning Gibbous, 74% of the Moon is Illuminated
May 10
Waning Gibbous
May 12
Last Quarter
May 20
New
May 28
First Quarter
Jun 4
Full

Hourly Weather History & Observations

Time (WGST) Temp. Windchill Dew Point Humidity Pressure Visibility Wind Dir Wind Speed Gust Speed Precip Events Conditions
1:00 AM 33 °F - 32 °F 96% 29.86 in - NW 3.5 mph - -  
4:00 AM 31 °F - 31 °F 97% 29.83 in - SSE 5.8 mph - -  
5:50 AM 33.8 °F 27.7 °F 33.8 °F 100% 29.77 in 6.2 mi SSE 6.9 mph - N/A   Scattered Clouds
6:50 AM 32.0 °F 25.6 °F 32.0 °F 100% 29.77 in 6.2 mi SSE 6.9 mph - N/A   Scattered Clouds
7:00 AM 33 °F - 32 °F 96% 29.78 in - ESE 16.1 mph - -  
7:50 AM 33.8 °F 23.2 °F 30.2 °F 87% 29.74 in 6.2 mi ESE 17.3 mph - N/A   Scattered Clouds
8:50 AM 37.4 °F 28.5 °F 26.6 °F 65% 29.74 in 6.2 mi ESE 15.0 mph - N/A   Partly Cloudy
9:50 AM 35.6 °F 27.1 °F 28.4 °F 75% 29.74 in 6.2 mi ESE 12.7 mph - N/A   Partly Cloudy
10:00 AM 36 °F - 27 °F 60% 29.78 in - ESE 15.0 mph - -  
10:50 AM 37.4 °F 28.9 °F 24.8 °F 60% 29.74 in 6.2 mi ESE 13.8 mph - N/A   Partly Cloudy
11:50 AM 39.2 °F 30.2 °F 24.8 °F 56% 29.74 in 6.2 mi ESE 17.3 mph - N/A   Partly Cloudy
12:50 PM 39.2 °F 31.2 °F 19.4 °F 45% 29.74 in 6.2 mi ESE 13.8 mph - N/A   Scattered Clouds
1:00 PM 40 °F - 20 °F 32% 29.78 in - East 10.4 mph - -  
1:50 PM 35.6 °F 28.6 °F 30.2 °F 81% 29.77 in 6.2 mi NNW 9.2 mph - N/A   Scattered Clouds
2:50 PM 33.8 °F 25.3 °F 32.0 °F 93% 29.77 in 6.2 mi NNW 11.5 mph - N/A   Scattered Clouds
3:50 PM 33.8 °F 23.9 °F 32.0 °F 93% 29.80 in 6.2 mi NW 15.0 mph - N/A   Mostly Cloudy
4:00 PM 34 °F - 33 °F 95% 29.82 in - NW 16.1 mph - -  
7:00 PM 32 °F - 32 °F 99% 29.87 in - North 2.3 mph - -  
10:00 PM 33 °F - 31 °F 88% 29.92 in - WNW 2.3 mph - -